Weather History for Manhattan, KS

Change the Weather History Date:

Monday, January 7, 2013

  Actual Average Record
Temperature  
Mean Temperature 42 °F 28 °F  
Max Temperature 54 °F 40 °F 69 °F (2006)
Min Temperature 29 °F 16 °F -7 °F (2014)
Degree Days  
Heating Degree Days 23 37  
Month to date heating degree days 268 259  
Since 1 July heating degree days 2189 2400  
Cooling Degree Days 0 0  
Month to date cooling degree days 0 0  
Year to date cooling degree days 0 0  
Moisture  
Dew Point 25 °F    
Average Humidity 52    
Maximum Humidity 69    
Minimum Humidity 35    
Precipitation  
Precipitation 0.00 in 0.01 in 0.00 in (2015)
Month to date precipitation T 0.07  
Year to date precipitation T 0.07  
Sea Level Pressure  
Sea Level Pressure 30.10 in    
Wind  
Wind Speed 12 mph (SSW)    
Max Wind Speed 24 mph    
Max Gust Speed 30 mph    
Visibility 10 miles    
Events      
T = Trace of Precipitation, MM = Missing Value Source: NWS Daily Summary

Daily Weather History Graph

Daily Weather History Graph

Search for Another Location

Airport:

Trip Planner

Search our weather history database for the weather conditions in past years. The results will help you decide how hot, cold, wet, or windy it might be!

Date:

Astronomy

Jan. 07, 2013 Rise Set
Actual Time 7:46 AM CST 5:20 PM CST
Civil Twilight 7:16 AM CST 5:50 PM CST
Nautical Twilight 6:43 AM CST 6:23 PM CST
Astronomical Twilight 6:10 AM CST 6:55 PM CST
Moon 3:11 AM CST (1/7) 1:31 PM CST (1/7)
Length of Visible Light 10h 33m
Length of Day
9h 34m
Waning Crescent, 22% of the Moon is Illuminated
Jan 7
Waning Crescent
Jan 11
New
Jan 18
First Quarter
Jan 26
Full
Feb 3
Last Quarter

Hourly Weather History & Observations

Time (CST) Temp. Windchill Dew Point Humidity Pressure Visibility Wind Dir Wind Speed Gust Speed Precip Events Conditions
12:52 AM 33.8 °F 26.4 °F 23.0 °F 65% 30.19 in 10.0 mi SSW 9.2 mph - N/A   Clear
1:52 AM 33.1 °F 26.1 °F 23.0 °F 66% 30.20 in 10.0 mi SSW 8.1 mph - N/A   Clear
2:52 AM 36.0 °F 27.5 °F 23.0 °F 59% 30.20 in 10.0 mi SW 12.7 mph - N/A   Clear
3:52 AM 35.1 °F 28.6 °F 21.9 °F 59% 30.19 in 10.0 mi SW 8.1 mph - N/A   Clear
4:52 AM 37.0 °F 28.5 °F 21.9 °F 54% 30.17 in 10.0 mi SSW 13.8 mph 19.6 mph N/A   Clear
5:52 AM 36.0 °F 28.0 °F 21.9 °F 57% 30.17 in 10.0 mi SSW 11.5 mph - N/A   Clear
6:52 AM 35.1 °F 27.4 °F 21.9 °F 59% 30.17 in 10.0 mi SW 10.4 mph - N/A   Clear
7:52 AM 36.0 °F 28.0 °F 21.9 °F 57% 30.17 in 10.0 mi SW 11.5 mph - N/A   Clear
8:52 AM 39.0 °F 31.0 °F 23.0 °F 53% 30.16 in 10.0 mi SW 13.8 mph 20.7 mph N/A   Clear
9:52 AM 44.1 °F 37.4 °F 24.1 °F 45% 30.17 in 10.0 mi SW 13.8 mph - N/A   Clear
10:52 AM 44.6 °F 35.9 °F 24.8 °F 46% 30.12 in - SSW 23.0 mph 28.8 mph N/A   Clear
11:41 AM 46.4 °F 40.4 °F 26.6 °F 46% 30.10 in - SW 13.8 mph - N/A   Partly Cloudy
11:52 AM 48.0 °F - 26.1 °F 42% 30.12 in - SSW 13.8 mph - N/A   Partly Cloudy
12:52 PM 50.0 °F - 26.1 °F 39% 30.08 in 10.0 mi SSW 12.7 mph 23.0 mph N/A   Clear
1:52 PM 53.1 °F - 26.1 °F 35% 30.04 in 10.0 mi SSW 16.1 mph - N/A   Clear
2:52 PM 53.1 °F - 26.1 °F 35% 30.02 in 10.0 mi SSW 16.1 mph 26.5 mph N/A   Clear
3:52 PM 50.0 °F - 26.1 °F 39% 30.03 in 10.0 mi SSW 17.3 mph 24.2 mph N/A   Clear
4:52 PM 48.0 °F - 27.0 °F 44% 30.02 in 10.0 mi SSW 8.1 mph - N/A   Clear
5:52 PM 42.1 °F 37.7 °F 27.0 °F 55% 30.02 in 10.0 mi SSW 6.9 mph - N/A   Clear
6:52 PM 43.0 °F 38.2 °F 26.1 °F 51% 30.02 in 10.0 mi SSW 8.1 mph - N/A   Clear
7:52 PM 42.1 °F 37.7 °F 26.1 °F 53% 30.01 in 10.0 mi SSW 6.9 mph - N/A   Clear
8:52 PM 39.9 °F 35.8 °F 26.1 °F 58% 30.02 in 10.0 mi SSW 5.8 mph - N/A   Clear
9:52 PM 39.9 °F 33.9 °F 27.0 °F 60% 30.01 in 10.0 mi SSW 9.2 mph - N/A   Clear
10:52 PM 41.0 °F 34.7 °F 27.0 °F 57% 29.99 in 10.0 mi SSW 10.4 mph - N/A   Clear
11:52 PM 39.9 °F 33.9 °F 27.0 °F 60% 29.99 in 10.0 mi SSW 9.2 mph - N/A   Clear